Fort Campbell, KY

1:57 AM CST on February 10, 2016 (GMT -0600)
Campbell Army Air Field

Weather History for KHOP - December, 2011

Change the Weather History Date:

Tuesday, December 20, 2011

  Actual Average Record
Temperature  
Mean Temperature 52 °F -  
Max Temperature 62 °F 43 °F 64 °F (2013)
Min Temperature 43 °F 25 °F 5 °F (1996)
Degree Days  
Heating Degree Days 13    
Growing Degree Days 2 (Base 50)    
Moisture  
Dew Point 52 °F    
Average Humidity 92    
Maximum Humidity 100    
Minimum Humidity 65    
Precipitation  
Precipitation 0.07 in - - ()
Sea Level Pressure  
Sea Level Pressure 29.95 in    
Wind  
Wind Speed 6 mph (SSE)    
Max Wind Speed 14 mph    
Max Gust Speed 22 mph    
Visibility 10 miles    
Events Rain    
Averages and records for this station are not official NWS values.
T = Trace of Precipitation, MM = Missing Value Source: NWS Daily Summary

Daily Weather History Graph

Daily Weather History Graph

Search for Another Location

Airport or City:

Trip Planner

Search our weather history database for the weather conditions in past years. The results will help you decide how hot, cold, wet, or windy it might be!

Date:

Astronomy

Dec. 20, 2011 Rise Set
Actual Time 6:57 AM CST 4:37 PM CST
Civil Twilight 6:29 AM CST 5:05 PM CST
Nautical Twilight 5:56 AM CST 5:38 PM CST
Astronomical Twilight 5:25 AM CST 6:09 PM CST
Moon 2:22 AM CST (12/20) 1:09 PM CST (12/20)
Length of Visible Light 10h 36m
Length of Day
9h 39m
Waning Crescent, 21% of the Moon is Illuminated
Dec 20
Waning Crescent
Dec 24
New
Jan 1
First Quarter
Jan 9
Full
Jan 16
Last Quarter

Hourly Weather History & Observations

Time (CST) Temp. Windchill Dew Point Humidity Pressure Visibility Wind Dir Wind Speed Gust Speed Precip Events Conditions
12:55 AM 43.5 °F 40.9 °F 32.5 °F 65% 30.12 in 10.0 mi SSE 4.6 mph - N/A   Scattered Clouds
1:55 AM 43.2 °F - 32.9 °F 67% 30.13 in 10.0 mi Calm Calm - N/A   Overcast
2:55 AM 43.5 °F - 34.9 °F 72% 30.10 in 10.0 mi Calm Calm - N/A   Overcast
3:55 AM 43.2 °F - 35.2 °F 74% 30.08 in 10.0 mi Calm Calm - N/A   Overcast
4:55 AM 43.7 °F 42.1 °F 36.9 °F 77% 30.06 in 10.0 mi ENE 3.5 mph - N/A   Overcast
5:55 AM 44.1 °F - 36.7 °F 75% 30.08 in 10.0 mi Calm Calm - N/A   Overcast
6:02 AM 44.6 °F - 37.4 °F 76% 30.08 in 10.0 mi Calm Calm - N/A   Overcast
6:04 AM 44.6 °F 43.1 °F 37.4 °F 76% 30.09 in 10.0 mi ESE 3.5 mph - N/A   Overcast
6:06 AM 44.6 °F - 35.6 °F 71% 30.08 in 10.0 mi Calm Calm - N/A   Mostly Cloudy
6:08 AM 44.6 °F - 35.6 °F 71% 30.08 in 10.0 mi Calm Calm - N/A   Mostly Cloudy
6:15 AM 44.6 °F - 35.6 °F 71% 30.09 in 10.0 mi Calm Calm - N/A   Mostly Cloudy
6:55 AM 44.1 °F 42.5 °F 36.7 °F 75% 30.08 in 10.0 mi East 3.5 mph - N/A   Mostly Cloudy
7:07 AM 44.6 °F 42.2 °F 37.4 °F 76% 30.08 in 10.0 mi ESE 4.6 mph - N/A   Mostly Cloudy
7:17 AM 44.6 °F 43.1 °F 37.4 °F 76% 30.08 in 10.0 mi ESE 3.5 mph - N/A   Scattered Clouds
7:26 AM 44.6 °F - 37.4 °F 76% 30.08 in 10.0 mi Calm Calm - N/A   Mostly Cloudy
7:55 AM 46.8 °F - 38.7 °F 73% 30.06 in 10.0 mi SE 6.9 mph - N/A   Overcast
8:16 AM 48.2 °F - 39.2 °F 71% 30.05 in 10.0 mi SE 10.4 mph - N/A   Overcast
8:18 AM 48.2 °F - 37.4 °F 66% 30.05 in 10.0 mi SE 10.4 mph - N/A   Overcast
8:19 AM 48.2 °F - 37.4 °F 66% 30.05 in 10.0 mi SE 9.2 mph - N/A   Light Drizzle
8:35 AM 48.2 °F - 41.0 °F 76% 30.06 in 10.0 mi SE 5.8 mph - N/A   Light Drizzle
8:55 AM 47.1 °F - 42.6 °F 84% 30.04 in 10.0 mi SE 8.1 mph - 0.00 in   Light Drizzle
9:55 AM 48.0 °F - 46.4 °F 94% 30.02 in 10.0 mi SSE 8.1 mph - 0.03 in   Light Drizzle
10:49 AM 50.0 °F - 50.0 °F 100% 30.01 in 10.0 mi South 8.1 mph - N/A   Overcast
10:55 AM 50.9 °F - 50.9 °F 100% 30.01 in 10.0 mi SSE 10.4 mph - 0.02 in   Mostly Cloudy
11:38 AM 51.8 °F - 51.8 °F 100% 29.97 in 6.0 mi SSE 8.1 mph - N/A   Overcast
11:55 AM 52.5 °F - 52.5 °F 100% 29.96 in 10.0 mi SSE 8.1 mph - N/A   Overcast
12:10 PM 51.8 °F - 51.8 °F 100% 29.94 in 10.0 mi SE 6.9 mph - N/A   Mostly Cloudy
12:28 PM 53.6 °F - 53.6 °F 100% 29.95 in 10.0 mi SSE 6.9 mph - N/A   Mostly Cloudy
12:30 PM 53.6 °F - 53.6 °F 100% 29.95 in 10.0 mi SSE 6.9 mph - N/A   Mostly Cloudy
12:32 PM 53.6 °F - 53.6 °F 100% 29.95 in 10.0 mi SSE 6.9 mph - N/A   Mostly Cloudy
12:46 PM 53.6 °F - 53.6 °F 100% 29.94 in 10.0 mi SE 5.8 mph - N/A   Overcast
12:55 PM 53.6 °F - 53.6 °F 100% 29.93 in 10.0 mi SE 6.9 mph - N/A   Overcast
1:06 PM 53.6 °F - 53.6 °F 100% 29.93 in 10.0 mi SSE 8.1 mph - N/A   Overcast
1:46 PM 55.4 °F - 55.4 °F 100% 29.91 in 10.0 mi SSE 6.9 mph - N/A   Overcast
1:55 PM 56.5 °F - 56.5 °F 100% 29.91 in 10.0 mi SSE 6.9 mph - N/A   Overcast
2:13 PM 57.2 °F - 57.2 °F 100% 29.90 in 10.0 mi SSE 8.1 mph - N/A   Overcast
2:55 PM 58.8 °F - 58.8 °F 100% 29.89 in 10.0 mi South 11.5 mph - N/A   Overcast
3:55 PM 60.3 °F - 60.1 °F 99% 29.90 in 10.0 mi South 12.7 mph - N/A   Overcast
4:18 PM 60.8 °F - 60.8 °F 100% 29.91 in 10.0 mi South 11.5 mph - N/A   Overcast
4:41 PM 60.8 °F - 60.8 °F 100% 29.91 in 10.0 mi South 9.2 mph - N/A   Overcast
4:47 PM 60.8 °F - 60.8 °F 100% 29.91 in 10.0 mi South 9.2 mph - N/A   Overcast
4:53 PM 60.8 °F - 60.8 °F 100% 29.91 in 10.0 mi South 9.2 mph - N/A   Overcast
4:55 PM 60.4 °F - 60.4 °F 100% 29.91 in 10.0 mi South 8.1 mph - N/A   Overcast
5:38 PM 60.8 °F - 60.8 °F 100% 29.90 in 10.0 mi SSE 6.9 mph - N/A   Light Drizzle
5:47 PM 60.8 °F - 60.8 °F 100% 29.90 in 10.0 mi South 6.9 mph - N/A   Overcast
5:55 PM 60.4 °F - 60.4 °F 100% 29.89 in 10.0 mi South 6.9 mph - 0.00 in   Overcast
6:55 PM 59.5 °F - 59.5 °F 100% 29.91 in 10.0 mi SSE 8.1 mph - N/A   Overcast
7:01 PM 59.0 °F - 59.0 °F 100% 29.91 in 10.0 mi SSE 8.1 mph - N/A   Light Drizzle
7:37 PM 60.8 °F - 60.8 °F 100% 29.90 in 10.0 mi South 6.9 mph - N/A   Light Drizzle
7:40 PM 60.8 °F - 60.8 °F 100% 29.90 in 10.0 mi SSE 8.1 mph - N/A   Light Drizzle
7:55 PM 59.9 °F - 59.9 °F 100% 29.89 in 10.0 mi SSE 9.2 mph - 0.01 in   Light Drizzle
8:05 PM 59.0 °F - 59.0 °F 100% 29.88 in 10.0 mi SSE 9.2 mph - N/A   Mostly Cloudy
8:10 PM 59.0 °F - 59.0 °F 100% 29.88 in 10.0 mi SE 9.2 mph - N/A   Light Drizzle
8:12 PM 59.0 °F - 59.0 °F 100% 29.88 in 10.0 mi SE 9.2 mph - N/A   Light Drizzle
8:15 PM 59.0 °F - 59.0 °F 100% 29.87 in 10.0 mi SSE 9.2 mph - N/A   Light Drizzle
8:23 PM 59.0 °F - 59.0 °F 100% 29.87 in 10.0 mi SSE 8.1 mph - N/A   Light Drizzle
8:24 PM 59.0 °F - 59.0 °F 100% 29.87 in 10.0 mi SSE 8.1 mph - N/A   Mostly Cloudy
8:27 PM 59.0 °F - 59.0 °F 100% 29.87 in 10.0 mi SSE 8.1 mph - N/A   Mostly Cloudy
8:31 PM 59.0 °F - 59.0 °F 100% 29.86 in 10.0 mi SSE 9.2 mph - N/A   Light Drizzle
8:34 PM 59.0 °F - 59.0 °F 100% 29.86 in 10.0 mi SE 10.4 mph - N/A   Light Drizzle
8:40 PM 59.0 °F - 59.0 °F 100% 29.86 in 10.0 mi SSE 9.2 mph - N/A   Mostly Cloudy
8:48 PM 59.0 °F - 59.0 °F 100% 29.86 in 10.0 mi SE 11.5 mph - N/A   Mostly Cloudy
8:55 PM 59.7 °F - 59.7 °F 100% 29.85 in 10.0 mi SE 11.5 mph - 0.00 in   Mostly Cloudy
9:30 PM 59.0 °F - 59.0 °F 100% 29.85 in 10.0 mi SSE 11.5 mph - N/A   Overcast
9:36 PM 59.0 °F - 59.0 °F 100% 29.84 in 10.0 mi SSE 12.7 mph - N/A   Overcast
9:39 PM 60.8 °F - 60.8 °F 100% 29.84 in 9.0 mi SSE 11.5 mph - N/A Rain Light Rain
9:43 PM 60.8 °F - 60.8 °F 100% 29.84 in 9.0 mi SSE 10.4 mph - N/A Rain Light Rain
9:52 PM 60.8 °F - 60.8 °F 100% 29.83 in 10.0 mi SSE 11.5 mph - N/A Rain Light Rain
9:53 PM 60.8 °F - 60.8 °F 100% 29.83 in 10.0 mi SSE 11.5 mph - N/A   Overcast
9:55 PM 59.9 °F - 59.9 °F 100% 29.83 in 10.0 mi SSE 11.5 mph - 0.01 in   Overcast
10:16 PM 60.8 °F - 60.8 °F 100% 29.83 in 10.0 mi South 12.7 mph - N/A   Mostly Cloudy
10:55 PM 61.0 °F - 61.0 °F 100% 29.81 in 10.0 mi South 13.8 mph 21.9 mph N/A   Overcast
11:55 PM 62.2 °F - 62.2 °F 100% 29.78 in 10.0 mi South 13.8 mph - N/A   Overcast